Other Surface Observations
Issued by NWS

Home | Current Version | Previous Version | Text Only | Print | Product List | Glossary On
Versions: 1 2 3 4 5 6 7 8 9 10 11 12 13 14 15 16 17 18 19 20 21 22 23 24 25 26 27 28 29 30 31 32 33 34 35 36 37 38 39 40 41 42 43 44 45 46 47 48 49 50
000
SXUS52 KTAE 220918
OSOTAE
OSOTAE
North Florida/South Alabama/Southwest Georgia Weather Roundup
National Weather Service Tallahassee Florida
400 AM EST MON DEC 22 2014

Note: "fair" indicates few or no clouds below 12,000 feet with no
significant weather and/or obstructions to visibility.

!FLZ017-115-028-034-025-221000
...North Florida...

CITY           SKY/WX    TMP DP  RH WIND       PRES   REMARKS
TALLAHASSEE    CLOUDY    58  55  90 N9        29.98F FOG
APALACHICOLA   FOG       64  61  90 N9        29.94F VSB 1/4
PERRY          CLOUDY    60  60 100 SE3       29.96F FOG
CROSS CITY       N/A     65  65 100 SE6       29.96F
JACKSONVILLE   CLOUDY    57  57 100 CALM      30.01S
$$

!FLZ112-006-005-002-011-221000
...Florida Panhandle...

CITY           SKY/WX    TMP DP  RH WIND       PRES   REMARKS
MARIANNA       CLOUDY    53  53 100 NE6       29.98F FOG
BONIFAY        NOT AVBL
PANAMA CITY NW LGT RAIN  55  54  94 NE8       29.92F FOG
TYNDALL AFB    NOT AVBL
TYND DRONE APT NOT AVBL
DE FUNIAK SPR  FOG       53  53 100 E6        29.95F VSB 1/4
EGLIN AFB      FOG       55  55  98 NE6       29.94F VSB 1/2
DESTIN         FOG       56  56 100 NE5       29.95F VSB 1
HURLBURT       CLOUDY    55  52  88 NE6       29.93F FOG
CRESTVIEW      FOG       54  54 100 NE5       29.96F VSB 1/4
PENSACOLA      CLOUDY    52  52 100 NE6       29.93F FOG
$$

!ALZ063-066-221000
...South Alabama...

CITY           SKY/WX    TMP DP  RH WIND       PRES   REMARKS
DOTHAN         LGT RAIN  51  51 100 E7        30.01S VSB 3/4
OZARK CAIRNS   FOG       52  50  93 E7        29.98S VSB 3/4
FT RUCKER HELI FOG       52  50  93 E3        29.98S VSB 3/4
RUCKER HELI 3  FOG       51  51 100 E5        30.00S VSB 5/16
RUCKER HELI 2  FOG       51  51 100 E7        29.98S VSB 1/2
FLORALA APT    FOG       53  52  96 E6        29.97F VSB 3/4
ANDALUSIA      FOG       55  52  88 E3        29.96F VSB 3/4
TROY           CLOUDY    51  49  92 E7        29.98F FOG
EUFALA         CLOUDY    48  48 100 E6        30.00S FOG
MOBILE         CLOUDY    54  54 100 E6        29.93F FOG
$$

!GAZ120>161-221000
...Southwest and South Central Georgia...

CITY           SKY/WX    TMP DP  RH WIND       PRES   REMARKS
THOMASVILLE    CLOUDY    54  54 100 NE5       30.01R FOG
BAINBRIDGE     CLOUDY    54  52  94 NE7       29.99F FOG
MOODY AFB      LGT RAIN  52  50  93 NE5       29.99F VSB 1
VALDOSTA       FOG       53  53 100 N7        30.00R VSB 1/2
MOULTRIE       CLOUDY    52  52 100 NE3       30.01R FOG
BLAKELY        CLOUDY    52  52 100 E5        30.01R FOG
ALBANY         CLOUDY    48  48 100 NE6       30.03S FOG
TIFTON         CLOUDY    48  48 100 NE5       30.01S FOG
FITZGERALD     CLOUDY    49  46  92 NE3       30.03F FOG
CORDELE        CLOUDY    49  47  95 NE7       30.04S FOG
AMERICUS       LGT RAIN  46  46 100 NE7       30.03F WCI  43
HOMERVILLE     CLOUDY    52  52 100 N5        30.01S FOG
$$

!GMZ750-755-770-775-221000
...Coastal and Buoy Obs...

STATION/POSITION TIME  TEMP    WIND        PRES    VSBY  WAVE
                       AIR SEA DIR/SP/G                  HT/PER
                 (UTC) (F)     (DEG/KT/KT) (MB)    (MI)  (FT/S)
KEATON BEACH     0900   65     140/  9/ 11 1014.8R
CEDAR KEY        0900   63     130/  8/  9 1015.8F
C TOWER          0900   66     140/ 16/ 16 1013.3F
APALACHICOLA BUO 0900   71 73  130/ 16/ 17 1013.2F         3/ 5
PANAMA CITY BUOY 0848   73 74  150/ 14/ 16 1012.8F         2/ 5
MOBILE BUOY      0900   71 74  130/ 14/ 16 1011.9F         3/ 5
ORANGE BCH AL BU 0900   66 71   80/ 14/ 17 1012.4F         2/ 4
$$



USA.gov is the U.S. government's official web portal to all federal, state and local government web resources and services.